Regional Weather Roundup
Issued by NWS Northern Indiana

Home | Current Version | Previous Version | Text Only | Print | Product List | Glossary Off
Versions: 1 2 3 4 5 6 7 8 9 10 11 12 13 14 15 16 17 18 19 20 21 22 23 24 25 26 27 28 29 30 31 32 33 34 35 36 37 38 39 40 41 42 43 44 45 46 47 48 49 50

000
ASUS43 KIWX 180710
RWRIWX

KIWX WEATHER ROUNDUP
NATIONAL WEATHER SERVICE NORTHERN INDIANA
300 AM EDT THU SEP 18 2014

NOTE: "FAIR" INDICATES FEW OR NO CLOUDS BELOW 12,000 FEET WITH NO
SIGNIFICANT WEATHER AND/OR OBSTRUCTIONS TO VISIBILITY.

* THESE STATIONS ARE NOT UNDER NWS QUALITY CONTROL. THEY ALSO MAY NOT
  REPORT WEATHER SUCH AS PRECIPITATION OR FOG.

INZ001>027-180800-
NORTHERN INDIANA

CITY           SKY/WX    TMP DP  RH WIND       PRES   REMARKS
GARY*          CLEAR     47  46  96 CALM      30.06R FOG
VALPARAISO     CLEAR     47  45  93 N3        30.05S
MICHIGAN CITY* CLEAR     45  45 100 CALM      30.05S FOG
LAPORTE*       CLEAR     44  44 100 CALM      30.06R
KNOX*          CLEAR     44  42  93 CALM      30.04S
SOUTH BEND     CLEAR     47  43  86 CALM      30.06R
GOSHEN         FOG       43  41  93 CALM      30.05S VSB 1
MONTICELLO*    CLEAR     48  47  98 CALM      30.04S
LOGANSPORT*    CLEAR     45  43  93 CALM      30.06R
ROCHESTER*     CLEAR     46  46 100 CALM      30.05S FOG
WARSAW*        CLEAR     43  43 100 CALM      30.05S FOG
ANGOLA*        CLEAR     45  45 100 CALM      30.05R
FORT WAYNE     PTCLDY    45  43  93 NW3       30.05S
HUNTINGTON*    CLEAR     45  45  99 CALM      30.04R
PERU/GRISSOM   CLEAR     48  48 100 CALM      30.04S
MARION*        PTCLDY    46  45  95 CALM      30.05S

$$
INZ028>050-180800-
CENTRAL INDIANA

CITY           SKY/WX    TMP DP  RH WIND       PRES   REMARKS
LAFAYETTE      CLEAR     50  49  96 CALM      30.05R FOG
KOKOMO*        CLEAR     48  45  87 CALM      30.05S
MUNCIE*        CLEAR     50  47  89 CALM      30.04S
INDIANAPOLIS   PTCLDY    53  49  86 CALM      30.04R

$$
MIZ043>046-050>051-056>058-064>065-071>073-077>080-180800-
SOUTHWEST LOWER MICHIGAN

CITY           SKY/WX    TMP DP  RH WIND       PRES   REMARKS
BATTLE CREEK   CLEAR     45  42  89 CALM      30.06R
BENTON HARBOR  CLEAR     42  41  96 CALM      30.05R
COLDWATER*     FOG       46  45  97 MISG      30.05R VSB 3/4
HILLSDALE*     CLEAR     44  44 100 CALM      30.04S FOG
HOLLAND        CLEAR     46  43  89 CALM      30.06R
GRAND RAPIDS   CLEAR     45  43  93 S3        30.06R
KALAMAZOO      CLEAR     43  42  97 CALM      30.05S FOG
STURGIS*       CLEAR     43  43 100 CALM      30.05R FOG
THREE RIVERS*  FAIR      45  43  93 CALM      30.06R

$$
OHZ001>008-015>018-024>025-180800-
NORTHWEST OHIO

CITY           SKY/WX    TMP DP  RH WIND       PRES   REMARKS
WAUSEON*       FAIR      45  45 100 CALM      30.04S
DEFIANCE       CLEAR     48  44  86 NE3       30.04S
FINDLAY        MOCLDY    48  46  93 SW3       30.02S
TOLEDO EXPRESS CLEAR     50  45  83 CALM      30.03S
TOLEDO METCALF PTCLDY    51  45  79 CALM      30.04R
LIMA           PTCLDY    47  45  93 CALM      30.04R

$$
&&



USA.gov is the U.S. government's official web portal to all federal, state and local government web resources and services.